THORAD AGENA D DEB, 4973

Orbit data source: Space-Track

THORAD AGENA D DEB, 4973 is space debris in SSO originally from a launch on Wed, 08 Apr 1970 UTC launched from the Air Force Western Test Range (AFWTR). Debris objects in space refer to the collection of defunct objects orbiting the Earth. Examples of debris include non-operational satellites, rocket bodies, and fragments generated from explosions, collisions, or faulty payload assembly.

Loading next visibility...
Identifier
4973, 1970-025GT
Orbit
SSO
Country
Flag of USUS
Related business
Manufacturer
Unknown
Mission
Spacecraft
Bus & Motor
Unknown
Mass
Unknown
Launch date (UTC)
1970-04-08 (56 years ago)
Launch vehicle
Unknown
Launch site
Air Force Western Test Range (AFWTR)
Object type
Payload
Rocket body
Debris
Shape & HBR
Unknown shape, 0.1 m
Radar Cross Section
Small (<0.1 m²)

Expand to show TLE details & history
Last TLE update: 21 hours ago

TLE from 21 hours ago
0 THORAD AGENA D DEB
1 04973U 70025GT  25300.81828491  .00002421  00000-0  14755-2 0  9991
2 04973 100.0120  56.2378 0090504 259.8135  99.2812 14.05216073807365
Epoch: 2025-10-27T19:38Z
TLE epoch observation values (Epoch: 2025-10-27T19:38:19.816Z)
Latitude
-0°
Longitude
85.24056°
Altitude
889.806 km
Speed
7.402 km/s
True Right ascension
03h 44m 57s
True Declination
0° 00' 00"
Sunlit
Object was in full shadow at epoch
Visualization orbit readout
Latitude
Unknown
Longitude
Unknown
Altitude
Unknown
Speed
Unknown
Apparent Right ascension
Unknown
Apparent Declination
Unknown
Sunlit
N/A
Visualization observer readout
Local Sidereal Time
12:26:00
Azimuth
Unknown
Elevation
Unknown
Doppler factor
Unknown
Orbital elements
Apogee altitude
938.659 km
Perigee altitude
807.407 km
Semi-major axis
7,251.17 km
Eccentricity
0.00905
Inclination
100.012°
RAAN
56.2378°
Arg. of periapsis
259.8135°
True anomaly
100.3028°
Mean anomaly
99.2812°
Eccentric anomaly
99.7922°
Mean motion
3.51505 °/min
Orbital period
102.42 mins
BSTAR
0.0014755
Loading maneuver chart data...
Computing Atmospheric mass density...

Documentation

Showing up to 5 results
|